Regional Weather Roundup
Issued by NWS Wakefield, VA

Home | Current Version | Previous Version | Graphics & Text | Print | Product List | Glossary On
Versions: 1 2 3 4 5 6 7 8 9 10 11 12 13 14 15 16 17 18 19 20 21 22 23 24 25 26 27 28 29 30 31 32 33 34 35 36 37 38 39 40 41 42 43 44 45 46 47 48 49 50
000
ASUS41 KAKQ 311210
RWRAKQ

REGIONAL WEATHER ROUNDUP
NATIONAL WEATHER SERVICE WAKEFIELD VA
700 AM EST SAT JAN 31 2015

Note: "fair" indicates few or no clouds below 12,000 feet with no
significant weather and/or obstructions to visibility. * = Denotes
station may not report precipitation (e.g., rain,snow,etc.),
thunder or fog.

VAZ042-051-052>054-056-311300-
NORTHERN VIRGINIA

CITY           SKY/WX    TMP DP  RH WIND       PRES   REMARKS
WASH NATIONAL  CLEAR     21   3  45 NW14G21   30.33R WCI   8
DULLES         CLEAR     16   2  54 NW8       30.31R
FORT BELVOIR   CLEAR     19   2  49 NW13      30.33R WCI   5
QUANTICO       CLEAR     19   3  49 N8        30.35R
FREDERICKSBRG* CLEAR     17  10  75 NW3       30.33R
STAFFORD*      CLEAR     18   1  48 CALM      30.36R
WARRENTON      CLEAR     19   9  65 NE6       30.30R
CULPEPER*      CLEAR     14   9  79 CALM      30.31R
MANASSAS*      NOT AVBL
LEESBURG*      CLEAR     19   7  58 N10       30.31S WCI   8
WINCHESTER     CLEAR     18   1  49 NW7       30.31R
FRONT ROYAL*   FAIR      19   0  42 N13       30.29R WCI   7
LURAY*         FAIR      19   9  63 S5        30.29R
$$

VAZ048-049-060>072-079>083-311300-
CENTRAL AND SOUTH CENTRAL VIRGINIA

CITY           SKY/WX    TMP DP  RH WIND       PRES   REMARKS
RICHMOND       CLEAR     20   8  60 NW3       30.33R
CHESTERFIELD*  FAIR      14   0  52 CALM      30.33R
PETERSBURG*    CLEAR     15  12  90 CALM      30.34R
HANOVER        CLEAR     16   8  71 CALM      30.34R
TAPPAHANNOCK*  CLEAR     20   3  46 NW5       30.32R
QUINTON*       FAIR      16   8  72 W3        30.33R
CHARLOTTSVILLE CLEAR     21   1  41 CALM      30.29R
GORDONSVILLE*  FAIR      12   8  83 CALM      30.30R
ORANGE*        CLEAR     14  10  85 CALM      30.32R
LOUISA*        CLEAR     10   9  92 CALM      30.29R
BUMPASS*       FAIR      13   9  81 CALM      30.31R
FARMVILLE*     CLEAR     14   8  79 CALM      30.30S
CREWE*         FAIR      19  11  70 CALM      30.31R
FORT PICKETT*  FAIR      19  10  66 CALM      30.31R
CHASE CITY*    FAIR      23  12  61 CALM      30.32R
CLARKSVILLE*   FAIR      23  10  58 CALM      30.32R
SOUTH HILL*    CLEAR     21  10  62 CALM      30.38R
LAWRENCEVILLE* FAIR      20  11  67 CALM      30.32R
EMPORIA*       CLEAR     21  10  63 CALM      30.35R
$$

VAZ088>098-311300-
SOUTHEAST VIRGINIA

CITY           SKY/WX    TMP DP  RH WIND       PRES   REMARKS
NORFOLK        CLEAR     24   4  42 NW10G24   30.30R WCI  14
VIRGINIA BEACH PTCLDY    26   7  44 NW23G31   30.29R WCI  11
NORFOLK NAVAL  PTCLDY    25   7  46 NW13      30.32R WCI  14
WEST POINT*    CLEAR     23   4  44 NW3       30.34R
SALUDA*        FAIR      21   8  56 NW15G21   30.30R WCI   8
NEWPORT NEWS   CLEAR     24   6  46 NW9       30.32R
LANGLEY AFB    CLEAR     22   5  46 NW15G23   30.31R WCI   9
FORT EUSTIS    CLEAR     23   7  51 N10G17    30.30R WCI  12
WILLIAMSBURG*    N/A     23   9  54 NW8       30.34R
HR EXEC AP*    FAIR      19   7  58 W6        30.34R
FRANKLIN*      CLEAR     21   9  59 CALM      30.34R
WAKEFIELD      CLEAR     21   6  52 CALM      30.33R
$$

VAZ020-022-025-037-045-311300-
WEST CENTRAL AND SOUTHWEST VIRGINIA

CITY           SKY/WX    TMP DP  RH WIND       PRES   REMARKS
STAUNTON*      CLEAR     13   6  75 CALM      30.28R
WAYNESBORO*    FAIR      18   2  48 W3        30.24R
HOT SPRINGS VA CLEAR     10  -2  57 W21       30.04S WCI  -9
LYNCHBURG      CLEAR     15   7  70 CALM      30.29R
DANVILLE       CLEAR     17   9  70 S3        30.34R
SOUTH BOSTON*  FAIR      19  11  69 CALM      30.33R
MARTINSVILLE   CLEAR     17  11  75 CALM      30.33S
ROANOKE        CLEAR     23   6  48 CALM      30.29S
BLACKSBURG     FAIR      17   9  70 W9G17     30.26S
DUBLIN*        CLEAR     19  10  69 CALM      30.27R
MARION*        PTCLDY    20  12  72 W14       30.28R WCI   6
HILLSVILLE*    CLEAR     19   8  64 NW12      30.20S WCI   6
RICHLANDS*     FAIR      17   8  66 CALM      30.26S
WISE*          CLEAR     19  12  73 CALM      30.28S
ABINGDON*      CLEAR     21  13  72 CALM      30.31S
$$

MDZ021>025-VAZ099-100-311300-
SOUTHERN MARYLAND AND THE DELMARVA PENINSULA

CITY           SKY/WX    TMP DP  RH WIND       PRES   REMARKS
PATUXENT RIVER PTCLDY    19   4  51 W18G25    30.29R WCI   4
BAY BRIDGE APT   N/A     21   5  49 NW15G23   30.28R WCI   8
LEONARDTOWN    NOT AVBL
DOVER          CLEAR     16  -2  45 NW18G24   30.22R WCI   0
GEORGETOWN     CLEAR     18  -2  41 NW12G18   30.22S WCI   5
EASTON         CLEAR     21   7  53 N14G25    30.29R WCI   8
CAMBRIDGE      CLEAR     23   5  46 NW17G25   30.25R WCI   9
SALISBURY      CLEAR     21   2  43 NW13      30.24R WCI   9
OCEAN CITY     CLEAR     18  -1  43 NW15G23   30.22R WCI   4
WALLOPS ISLAND CLEAR     20   3  48 NW14G26   30.25R WCI   7
ACCOMACK*      CLEAR     23   9  54 NW16G32   30.25R WCI  10
$$

NCZ012>017-030>032-311300-
NORTH CENTRAL AND EASTERN NORTH CAROLINA

CITY           SKY/WX    TMP DP  RH WIND       PRES   REMARKS
ROANOKE RAPIDS FAIR      25  12  58 W3        30.34R
RALEIGH        PTCLDY    25   7  46 CALM      30.34R
ELIZABETH CITY CLEAR     23  10  57 NW9       30.32R
AHOSKIE*       CLEAR     23  10  57 CALM      30.35R
EDENTON*       CLEAR     26  15  60 NW8       30.32R
CURRITUCK*     CLEAR     25   9  50 W7        30.31R
KILL DEVIL HLS CLEAR     27   8  46 NW12G23   30.27R WCI  16
MANTEO         CLEAR     27   9  46 N22G32    30.29R WCI  12
CAPE HATTERAS  CLEAR     30  13  49 NW16G30   30.28R WCI  19
TARBORO*       FAIR      27  12  53 NW7       30.34F
GOLDSBORO      CLEAR     32  12  43 NW9G17    30.29R
WASHINGTON     CLEAR     25  13  59 NW3       30.33R
GREENVILLE     CLEAR     28  12  50 CALM      30.34R
NEW BERN       CLEAR     30  12  47 N9        30.33R
WILMINGTON     CLEAR     28  11  48 NW3       30.34R
$$

VAZ048-311300-
ELSEWHERE

CITY           SKY/WX    TMP DP  RH WIND       PRES   REMARKS
HARRISBURG PA  CLEAR     13   0  56 NW17G25   30.27R WCI  -4
BALTIMORE      CLEAR     17   5  59 W13       30.27R WCI   4
ANNAPOLIS      CLEAR     20   7  57 NW12G21   30.28R WCI   8
ANDREWS AFB    CLEAR     17   4  55 NW15G22   30.29R WCI   3
PHILADELPHIA   CLEAR     15  -3  44 NW15      30.22R WCI   0
HENDERSON NC   CLEAR     22   8  55 CALM      30.33R
GREENSBORO     PTCLDY    21   9  59 CALM      30.31R
ROCKY MOUNT    CLEAR     26  10  50 NW8       30.34R
$$

VAZ100-311300-
MARINE

STATION/POSITION TIME  TEMP    WIND        PRES    WAVE   SWELL
                       AIR SEA DIR/SP/G            HT/PER HT/PER
                 (UTC) (F)     (DEG/KT/KT) (MB)    (FT/S) (FT/S)
BRANDYWINE LGT   1200          340/ 26/ 31   N/A
CAPE MAY NJ      1200   19 33              1021.9R
LEWES DE         1200   20 32  330/ 26/ 32 1022.8R
15NM E FENWICK I 1200   22 39              1021.3R   8/ 6
OCEAN-CITY-INLET 1200   20 37  340/ 20/ 27 1022.5S
WACHAPREAGUE VA  1200   22 34  320/  8/ 16 1024.3R
THOMAS POINT MD  1200   19 33  310/ 17/ 19 1026.5R
GOOSES REEF MD   1200   21     VRB 17/ 23  1024.2R
COVE POINT MD    1200   18     330/ 18/ 22 1024.9R
SOLOMONS ISLAND  1200      36                N/A
BISHOPS HEAD MD  1200   20 30  320/ 12/ 21 1024.3S
PINEY POINT MD   1200          340/ 23/ 25   N/A
POTOMAC MD       1200   22     330/ 19/ 23 1024.2R
CAMBRIDGE MD     1200   22 33  320/ 19/ 26 1024.3R
LEWISETTA VA     1200   21 33  330/ 16/ 23 1026.1R
RAPPAHANNOCK LGT 1200          320/ 26/ 30 1025.5R
STINGRAY PT      1200   23     320/ 19/ 23 1026.0R
YORK RVR RNG VA  1200   24     330/ 20/ 24 1025.5R
YORKTOWN VA      1200   24 38  320/ 16/ 20 1026.2R
JAMESTOWN VA     1200   22     360/ 10/ 14   N/A
DOMINION TERM VA 1200   25     330/ 14/ 18 1026.3R
KIPTOPEKE VA     1200      40  350/ 21/ 28   N/A
CHES BAY BRIDGE  1200   26 38  310/ 25/ 32 1025.4R
CAPE HENRY VA    1200   25     320/ 27/ 34 1024.2R
CHESAPEAKE LGHT  1100   24     330/ 29/ 32 1024.5R
WILLOUBY STN VA  1200   24     330/ 15/ 17 1026.7R
S CRANEY ISL VA  1200          340/ 12/ 18 1026.2R
CAPE HENRY BUOY  1200      42                N/A     7/ 6
1ST LANDING BUOY 1200   27     330/ 25/ 33 1025.1R
CAPE CHARLES BUO 1200      40                N/A     5/ 4   2/ 7
OFFSHORE WE BUOY 1200      43                N/A     9/ 6   2/13
64NM E OF VA BCH 1200   29 48  330/ 27/ 33 1022.1R  11/ 8
DUCK PIER NC     1200   27 41  320/ 19/ 27 1024.3R
44100 DUCK FRF   1200      44                N/A     9/ 7   2/11
44056 DUCK FRF   1200      42                N/A     7/ 7
OREGON INLET NC  1200   27 39  320/ 19/ 28 1025.1R
HATTERAS NC      1200   31 40  330/ 24/ 28 1025.6R


USA.gov is the U.S. government's official web portal to all federal, state and local government web resources and services.